Regional Weather Roundup
Issued by NWS

Home | Current Version | Previous Version | Text Only | Print | Product List | Glossary Off
Versions: 1 2 3 4 5 6 7 8 9 10 11 12 13 14 15 16 17 18 19 20 21 22 23 24 25 26 27 28 29 30 31 32 33 34 35 36 37 38 39 40 41 42 43 44 45 46 47 48 49 50

000
ASUS45 KBOI 281310
RWRID
WEATHER ROUNDUP FOR IDAHO
NATIONAL WEATHER SERVICE BOISE ID
600 AM MST FRI NOV 28 2014

NOTE: "FAIR" INDICATES FEW OR NO CLOUDS BELOW 12000 FEET
WITH NO SIGNIFICANT WEATHER AND/OR OBSTRUCTIONS TO VISIBILITY

IDZ012-014-281400-
SOUTHWEST IDAHO


CITY           SKY/WX    TMP DP  RH WIND       PRES   REMARKS
BOISE          CLOUDY    40  39  97 N5        29.87F
CALDWELL       NOT AVBL
MOUNTAIN HOME  CLOUDY    41  41 100 E13       29.88F
$$

IDZ016-017-281400-
SOUTHCENTRAL IDAHO


CITY           SKY/WX    TMP DP  RH WIND       PRES   REMARKS
BURLEY         CLOUDY    52  23  32 SW18G25   29.92F
JEROME         CLOUDY    45  28  51 SE6       29.93F
TWIN FALLS     CLOUDY    54  25  32 S13       29.91F
$$

IDZ019>023-281400-
SOUTHEAST IDAHO


CITY           SKY/WX    TMP DP  RH WIND       PRES   REMARKS
IDAHO FALLS    PTCLDY    40  26  57 SW10      29.92F WCI  33
POCATELLO      CLEAR     44  25  47 VRB7      29.94F
REXBURG        MOCLDY    43  25  49 SW10      29.90F
$$

IDZ006-010-011-018-031-032-281400-
CENTRAL IDAHO MOUNTAINS


CITY           SKY/WX    TMP DP  RH WIND       PRES   REMARKS
MCCALL         LGT RAIN  39  33  79 VRB7      29.87F WCI  34
HAILEY         CLOUDY    34  32  93 NW5       29.97F WCI  30
STANLEY          N/A     47   9  21 W12G29    29.92F
SALMON         CLOUDY    45  30  57 NE6       29.78F
CHALLIS        PTCLDY    33  28  81 CALM      29.83F
$$

IDZ002-004-006-007-026-281400-
NORTHERN IDAHO


CITY           SKY/WX    TMP DP  RH WIND       PRES   REMARKS
LEWISTON       CLOUDY    56  44  64 S12       29.68F
LOWELL           N/A     42  40  92 N3        29.79F
COEUR D`ALENE  CLOUDY    52  39  62 SW15G31   29.59F
MULLAN PASS    LGT RAIN  35  35 100 SW14G28   29.62F VSB 3/4 WCI  26
$$



USA.gov is the U.S. government's official web portal to all federal, state and local government web resources and services.